QPF
0.05 0.05 0.06 0.08 0.08 0.07 0.08 0.11 0.08 0.05 0.05 0.05 0.03 0.03 0.03 0.03 0.02 0.01 0.01 0.01 0.01 0.02 0.04 0.06 0.05 0.05 0.06 0.08 0.09 0.07 0.07 0.07 0.06 0.04 0.04 0.04 0.04 0.04 0.03 0.03 0.03 0.03 0.03
0.03 0.03 0.04 0.06 0.08 0.07 0.07 0.14 0.11 0.08 0.04 0.05 0.05 0.04 0.04 0.04 0.03 0.02 0.01 0.01 0.01 0.02 0.03 0.04 0.05 0.06 0.06 0.06 0.09 0.07 0.06 0.06 0.06 0.05 0.04 0.03 0.04 0.04 0.04 0.03 0.03 0.03 0.03
0.03 0.03 0.03 0.03 0.05 0.07 0.07 0.11 0.12 0.09 0.05 0.05 0.05 0.04 0.04 0.04 0.03 0.04 0.03 0.02 0.02 0.01 0.02 0.03 0.04 0.05 0.06 0.07 0.09 0.08 0.07 0.07 0.06 0.05 0.04 0.04 0.04 0.03 0.03 0.03 0.03 0.03 0.03
0.04 0.04 0.03 0.03 0.04 0.06 0.07 0.08 0.10 0.06 0.04 0.03 0.04 0.04 0.04 0.04 0.03 0.03 0.03 0.03 0.02 0.01 0.01 0.02 0.03 0.04 0.10 0.12 0.11 0.11 0.11 0.10 0.08 0.06 0.05 0.03 0.03 0.03 0.02 0.02 0.03 0.04 0.03
0.04 0.04 0.04 0.03 0.03 0.04 0.07 0.07 0.10 0.08 0.07 0.05 0.04 0.04 0.04 0.04 0.04 0.04 0.03 0.03 0.03 0.02 0.01 0.01 0.02 0.03 0.06 0.10 0.09 0.10 0.12 0.13 0.13 0.10 0.07 0.04 0.03 0.02 0.02 0.02 0.03 0.03 0.03
0.03 0.04 0.03 0.04 0.03 0.03 0.05 0.06 0.06 0.08 0.10 0.07 0.06 0.06 0.05 0.05 0.04 0.04 0.04 0.04 0.04 0.02 0.02 0.02 0.02 0.02 0.03 0.04 0.06 0.06 0.07 0.10 0.10 0.09 0.08 0.06 0.04 0.03 0.04 0.04 0.04 0.03 0.03
0.04 0.04 0.04 0.04 0.03 0.03 0.04 0.05 0.04 0.05 0.06 0.08 0.08 0.06 0.04 0.05 0.05 0.04 0.04 0.04 0.02 0.02 0.03 0.03 0.03 0.02 0.02 0.02 0.02 0.03 0.04 0.07 0.09 0.10 0.09 0.07 0.05 0.04 0.04 0.04 0.04 0.03 0.02
0.03 0.04 0.04 0.03 0.03 0.03 0.03 0.04 0.05 0.04 0.04 0.05 0.07 0.07 0.06 0.05 0.03 0.03 0.03 0.03 0.02 0.02 0.03 0.03 0.04 0.04 0.02 0.02 0.01 0.01 0.02 0.04 0.06 0.08 0.08 0.07 0.05 0.04 0.03 0.04 0.05 0.04 0.03
0.04 0.03 0.03 0.04 0.03 0.03 0.03 0.03 0.04 0.05 0.05 0.05 0.06 0.07 0.07 0.05 0.04 0.03 0.03 0.03 0.03 0.02 0.02 0.03 0.03 0.05 0.05 0.04 0.03 0.01 0.01 0.02 0.04 0.06 0.07 0.07 0.05 0.04 0.03 0.03 0.04 0.04 0.04
0.03 0.03 0.03 0.04 0.04 0.03 0.03 0.02 0.03 0.04 0.05 0.05 0.05 0.05 0.06 0.05 0.05 0.04 0.03 0.03 0.03 0.02 0.02 0.02 0.03 0.03 0.04 0.04 0.04 0.02 0.01 0.01 0.02 0.04 0.06 0.07 0.07 0.05 0.04 0.03 0.03 0.03 0.04
0.04 0.03 0.03 0.03 0.04 0.03 0.03 0.02 0.03 0.03 0.03 0.03 0.04 0.05 0.05 0.04 0.04 0.04 0.04 0.03 0.03 0.02 0.03 0.03 0.02 0.03 0.03 0.03 0.03 0.02 0.02 0.01 0.01 0.02 0.03 0.05 0.07 0.07 0.05 0.04 0.02 0.03 0.03
0.05 0.04 0.04 0.03 0.03 0.03 0.03 0.02 0.03 0.03 0.03 0.03 0.04 0.05 0.05 0.04 0.04 0.03 0.03 0.03 0.02 0.02 0.02 0.03 0.02 0.01 0.02 0.02 0.02 0.01 0.01 0.02 0.02 0.01 0.02 0.03 0.05 0.07 0.07 0.06 0.05 0.04 0.03
0.07 0.05 0.03 0.03 0.03 0.03 0.03 0.03 0.04 0.04 0.03 0.04 0.04 0.05 0.05 0.05 0.05 0.04 0.04 0.03 0.02 0.02 0.02 0.01 0.01 0.01 0.01 0.01 0.02 0.02 0.02 0.02 0.02 0.02 0.01 0.02 0.03 0.05 0.06 0.07 0.07 0.06 0.06
0.06 0.05 0.05 0.04 0.04 0.04 0.03 0.04 0.04 0.05 0.04 0.04 0.04 0.06 0.06 0.06 0.06 0.05 0.04 0.04 0.03 0.02 0.02 0.02 0.01 0.01 0.01 0.02 0.02 0.02 0.02 0.02 0.01 0.01 0.01 0.01 0.02 0.04 0.06 0.07 0.07 0.07 0.07
0.05 0.04 0.04 0.04 0.04 0.04 0.04 0.04 0.04 0.04 0.04 0.04 0.05 0.05 0.05 0.05 0.06 0.06 0.05 0.04 0.04 0.03 0.03 0.02 0.02 0.02 0.03 0.03 0.03 0.03 0.03 0.02 0.01 0.01 0.01 0.01 0.03 0.03 0.04 0.06 0.06 0.07 0.05
0.03 0.03 0.03 0.04 0.05 0.04 0.04 0.04 0.03 0.03 0.04 0.04 0.05 0.06 0.06 0.06 0.06 0.07 0.06 0.05 0.04 0.04 0.03 0.02 0.02 0.02 0.03 0.03 0.04 0.04 0.03 0.03 0.02 0.01 0.01 0.01 0.02 0.03 0.04 0.06 0.07 0.07 0.06
0.03 0.03 0.03 0.04 0.05 0.04 0.03 0.02 0.02 0.02 0.03 0.03 0.04 0.05 0.05 0.07 0.07 0.06 0.06 0.05 0.05 0.04 0.04 0.02 0.02 0.02 0.03 0.04 0.04 0.04 0.04 0.04 0.04 0.03 0.02 0.02 0.02 0.02 0.03 0.04 0.06 0.06 0.07
0.04 0.04 0.03 0.04 0.05 0.03 0.02 0.02 0.02 0.03 0.03 0.03 0.03 0.05 0.05 0.06 0.07 0.07 0.05 0.05 0.04 0.04 0.03 0.02 0.02 0.02 0.02 0.03 0.04 0.05 0.04 0.04 0.04 0.04 0.02 0.03 0.03 0.03 0.03 0.04 0.05 0.05 0.06
0.03 0.03 0.04 0.05 0.05 0.04 0.04 0.04 0.04 0.04 0.03 0.04 0.04 0.04 0.06 0.06 0.06 0.05 0.05 0.04 0.04 0.03 0.03 0.02 0.02 0.02 0.02 0.02 0.05 0.06 0.04 0.04 0.04 0.03 0.03 0.03 0.03 0.03 0.04 0.04 0.05 0.04 0.05
0.03 0.04 0.04 0.04 0.03 0.03 0.03 0.04 0.04 0.05 0.04 0.04 0.04 0.03 0.03 0.03 0.03 0.03 0.03 0.03 0.04 0.04 0.03 0.03 0.02 0.02 0.02 0.03 0.05 0.06 0.06 0.06 0.05 0.04 0.04 0.03 0.03 0.03 0.02 0.02 0.02 0.02 0.03
0.03 0.03 0.04 0.04 0.04 0.04 0.04 0.04 0.04 0.04 0.04 0.03 0.03 0.03 0.03 0.02 0.02 0.02 0.02 0.02 0.03 0.04 0.03 0.03 0.02 0.02 0.02 0.03 0.06 0.06 0.05 0.06 0.06 0.04 0.04 0.04 0.03 0.03 0.03 0.02 0.02 0.02 0.02
0.03 0.03 0.03 0.03 0.03 0.02 0.02 0.02 0.03 0.03 0.03 0.03 0.03 0.03 0.03 0.02 0.02 0.02 0.02 0.02 0.03 0.03 0.03 0.03 0.02 0.02 0.02 0.04 0.08 0.07 0.06 0.06 0.06 0.05 0.05 0.04 0.04 0.04 0.04 0.03 0.02 0.02 0.01
0.03 0.03 0.03 0.03 0.02 0.02 0.03 0.03 0.03 0.04 0.04 0.05 0.05 0.05 0.04 0.03 0.02 0.02 0.02 0.04 0.03 0.02 0.02 0.03 0.03 0.02 0.04 0.07 0.10 0.08 0.06 0.06 0.05 0.05 0.05 0.05 0.04 0.04 0.03 0.03 0.02 0.02 0.01
0.04 0.04 0.04 0.04 0.04 0.03 0.03 0.03 0.04 0.05 0.06 0.07 0.06 0.06 0.04 0.03 0.03 0.02 0.03 0.04 0.03 0.03 0.02 0.03 0.03 0.03 0.04 0.08 0.09 0.07 0.06 0.06 0.05 0.05 0.05 0.05 0.05 0.05 0.04 0.04 0.03 0.02 0.01
0.03 0.03 0.03 0.04 0.03 0.03 0.03 0.03 0.04 0.06 0.06 0.06 0.06 0.04 0.03 0.02 0.03 0.04 0.03 0.03 0.03 0.03 0.02 0.02 0.02 0.02 0.03 0.06 0.07 0.06 0.05 0.05 0.05 0.05 0.05 0.05 0.05 0.06 0.06 0.06 0.04 0.02 0.01
0.02 0.02 0.02 0.03 0.03 0.02 0.02 0.03 0.04 0.05 0.04 0.05 0.05 0.04 0.04 0.03 0.03 0.04 0.04 0.04 0.03 0.02 0.03 0.03 0.02 0.02 0.02 0.04 0.05 0.04 0.04 0.04 0.04 0.05 0.05 0.05 0.04 0.05 0.06 0.05 0.04 0.03 0.02
MSLP
1015.78 1016.17 1016.54 1016.90 1017.27 1017.64 1018.04 1018.44 1018.82 1019.13 1019.33 1019.40 1019.34 1019.18 1018.95 1018.73 1018.57 1018.54 1018.65 1018.91 1019.27 1019.68 1020.09 1020.45 1020.73 1020.92 1021.04 1021.11 1021.17 1021.24 1021.34 1021.46 1021.58 1021.69 1021.77 1021.80 1021.78 1021.71 1021.62 1021.51 1021.40 1021.30 1021.21
1015.66 1016.00 1016.32 1016.63 1016.95 1017.30 1017.69 1018.10 1018.51 1018.89 1019.17 1019.34 1019.38 1019.29 1019.12 1018.92 1018.75 1018.67 1018.70 1018.87 1019.14 1019.49 1019.86 1020.22 1020.53 1020.77 1020.96 1021.10 1021.22 1021.32 1021.44 1021.55 1021.65 1021.73 1021.77 1021.77 1021.72 1021.64 1021.55 1021.44 1021.35 1021.27 1021.22
1015.63 1015.91 1016.16 1016.41 1016.68 1016.99 1017.35 1017.76 1018.20 1018.62 1018.98 1019.24 1019.37 1019.37 1019.27 1019.10 1018.93 1018.80 1018.76 1018.83 1019.01 1019.28 1019.59 1019.93 1020.24 1020.53 1020.77 1020.97 1021.15 1021.30 1021.44 1021.56 1021.65 1021.72 1021.74 1021.72 1021.67 1021.59 1021.50 1021.43 1021.37 1021.34 1021.34
1015.66 1015.88 1016.08 1016.27 1016.48 1016.75 1017.07 1017.46 1017.90 1018.35 1018.77 1019.10 1019.32 1019.40 1019.37 1019.24 1019.08 1018.92 1018.82 1018.80 1018.88 1019.05 1019.30 1019.58 1019.89 1020.19 1020.46 1020.72 1020.95 1021.15 1021.32 1021.47 1021.58 1021.65 1021.68 1021.67 1021.63 1021.58 1021.53 1021.49 1021.48 1021.51 1021.57
1015.71 1015.89 1016.04 1016.19 1016.36 1016.58 1016.86 1017.22 1017.65 1018.10 1018.54 1018.92 1019.20 1019.35 1019.38 1019.31 1019.16 1018.99 1018.85 1018.76 1018.76 1018.84 1019.00 1019.22 1019.49 1019.78 1020.07 1020.36 1020.63 1020.88 1021.11 1021.30 1021.45 1021.55 1021.61 1021.64 1021.64 1021.63 1021.63 1021.65 1021.70 1021.78 1021.89
1015.73 1015.88 1016.02 1016.14 1016.28 1016.47 1016.72 1017.04 1017.44 1017.87 1018.31 1018.70 1019.02 1019.22 1019.31 1019.28 1019.17 1019.01 1018.85 1018.72 1018.64 1018.65 1018.73 1018.88 1019.10 1019.36 1019.65 1019.95 1020.26 1020.55 1020.83 1021.08 1021.29 1021.45 1021.57 1021.66 1021.72 1021.77 1021.83 1021.90 1022.01 1022.14 1022.28
1015.67 1015.81 1015.95 1016.07 1016.22 1016.39 1016.62 1016.92 1017.27 1017.67 1018.07 1018.45 1018.77 1019.00 1019.13 1019.15 1019.08 1018.95 1018.80 1018.66 1018.55 1018.50 1018.52 1018.61 1018.76 1018.98 1019.25 1019.56 1019.89 1020.22 1020.56 1020.87 1021.15 1021.39 1021.58 1021.74 1021.87 1021.99 1022.10 1022.23 1022.38 1022.54 1022.70
1015.48 1015.64 1015.80 1015.95 1016.12 1016.31 1016.54 1016.81 1017.12 1017.47 1017.83 1018.18 1018.48 1018.71 1018.86 1018.93 1018.91 1018.83 1018.72 1018.60 1018.49 1018.41 1018.39 1018.43 1018.54 1018.71 1018.95 1019.25 1019.59 1019.96 1020.34 1020.72 1021.08 1021.40 1021.67 1021.91 1022.10 1022.28 1022.44 1022.60 1022.77 1022.94 1023.11
1015.16 1015.34 1015.53 1015.74 1015.95 1016.18 1016.42 1016.68 1016.97 1017.27 1017.57 1017.87 1018.13 1018.35 1018.52 1018.62 1018.67 1018.65 1018.60 1018.53 1018.45 1018.39 1018.36 1018.37 1018.44 1018.58 1018.79 1019.08 1019.42 1019.82 1020.24 1020.68 1021.10 1021.49 1021.84 1022.14 1022.39 1022.61 1022.80 1022.98 1023.15 1023.31 1023.46
1014.70 1014.90 1015.14 1015.40 1015.67 1015.95 1016.22 1016.49 1016.75 1017.02 1017.27 1017.51 1017.74 1017.94 1018.11 1018.25 1018.36 1018.42 1018.45 1018.45 1018.44 1018.42 1018.41 1018.43 1018.49 1018.61 1018.80 1019.07 1019.41 1019.82 1020.28 1020.75 1021.23 1021.68 1022.08 1022.43 1022.72 1022.95 1023.15 1023.33 1023.48 1023.62 1023.75
1014.12 1014.34 1014.61 1014.92 1015.25 1015.58 1015.89 1016.18 1016.44 1016.68 1016.89 1017.09 1017.28 1017.47 1017.65 1017.83 1017.99 1018.14 1018.26 1018.36 1018.44 1018.49 1018.53 1018.58 1018.65 1018.77 1018.96 1019.22 1019.56 1019.97 1020.44 1020.94 1021.45 1021.93 1022.37 1022.74 1023.05 1023.29 1023.48 1023.64 1023.76 1023.88 1023.98
1013.46 1013.67 1013.96 1014.31 1014.68 1015.06 1015.41 1015.73 1016.00 1016.22 1016.42 1016.59 1016.76 1016.94 1017.14 1017.35 1017.58 1017.82 1018.04 1018.24 1018.42 1018.56 1018.68 1018.79 1018.90 1019.04 1019.23 1019.49 1019.83 1020.25 1020.72 1021.23 1021.75 1022.24 1022.69 1023.07 1023.37 1023.61 1023.78 1023.91 1024.01 1024.10 1024.17
1012.75 1012.94 1013.22 1013.57 1013.97 1014.38 1014.77 1015.11 1015.40 1015.64 1015.84 1016.01 1016.18 1016.37 1016.59 1016.84 1017.14 1017.45 1017.77 1018.08 1018.37 1018.61 1018.83 1019.01 1019.18 1019.36 1019.58 1019.85 1020.19 1020.60 1021.07 1021.58 1022.10 1022.59 1023.03 1023.40 1023.70 1023.92 1024.08 1024.18 1024.26 1024.32 1024.38
1012.02 1012.17 1012.42 1012.76 1013.16 1013.58 1013.99 1014.36 1014.68 1014.94 1015.16 1015.35 1015.54 1015.76 1016.01 1016.32 1016.67 1017.06 1017.47 1017.88 1018.27 1018.62 1018.93 1019.20 1019.44 1019.68 1019.94 1020.24 1020.59 1021.01 1021.47 1021.97 1022.47 1022.95 1023.38 1023.74 1024.03 1024.23 1024.37 1024.46 1024.52 1024.57 1024.62
1011.31 1011.40 1011.61 1011.92 1012.30 1012.71 1013.12 1013.52 1013.86 1014.16 1014.42 1014.66 1014.89 1015.14 1015.44 1015.79 1016.20 1016.66 1017.15 1017.64 1018.12 1018.56 1018.96 1019.32 1019.65 1019.96 1020.27 1020.61 1020.99 1021.41 1021.87 1022.36 1022.85 1023.31 1023.72 1024.07 1024.34 1024.54 1024.68 1024.76 1024.82 1024.86 1024.91
1010.64 1010.68 1010.84 1011.10 1011.44 1011.83 1012.25 1012.65 1013.03 1013.37 1013.68 1013.97 1014.25 1014.56 1014.90 1015.30 1015.75 1016.26 1016.80 1017.35 1017.90 1018.42 1018.91 1019.35 1019.76 1020.15 1020.52 1020.91 1021.32 1021.76 1022.22 1022.70 1023.18 1023.63 1024.03 1024.37 1024.64 1024.84 1024.98 1025.07 1025.14 1025.19 1025.24
1010.02 1010.02 1010.13 1010.35 1010.65 1011.01 1011.41 1011.83 1012.24 1012.62 1012.98 1013.33 1013.67 1014.03 1014.42 1014.85 1015.33 1015.86 1016.43 1017.02 1017.62 1018.20 1018.75 1019.27 1019.75 1020.21 1020.65 1021.09 1021.54 1022.00 1022.48 1022.96 1023.42 1023.86 1024.25 1024.59 1024.86 1025.07 1025.23 1025.35 1025.43 1025.50 1025.57
1009.45 1009.43 1009.51 1009.68 1009.95 1010.29 1010.68 1011.09 1011.52 1011.94 1012.36 1012.75 1013.15 1013.55 1013.98 1014.43 1014.93 1015.47 1016.05 1016.65 1017.26 1017.88 1018.47 1019.05 1019.59 1020.12 1020.62 1021.12 1021.61 1022.10 1022.58 1023.07 1023.53 1023.96 1024.35 1024.68 1024.96 1025.19 1025.37 1025.52 1025.64 1025.74 1025.83
1008.91 1008.89 1008.95 1009.11 1009.35 1009.66 1010.04 1010.46 1010.90 1011.35 1011.80 1012.24 1012.68 1013.12 1013.57 1014.03 1014.53 1015.06 1015.63 1016.22 1016.84 1017.46 1018.08 1018.70 1019.29 1019.87 1020.42 1020.97 1021.49 1022.01 1022.51 1022.99 1023.45 1023.88 1024.26 1024.60 1024.89 1025.14 1025.35 1025.53 1025.69 1025.83 1025.95
1008.37 1008.37 1008.44 1008.59 1008.82 1009.13 1009.49 1009.91 1010.36 1010.82 1011.30 1011.77 1012.24 1012.70 1013.16 1013.63 1014.12 1014.63 1015.17 1015.74 1016.34 1016.96 1017.59 1018.22 1018.85 1019.46 1020.06 1020.64 1021.19 1021.73 1022.24 1022.72 1023.17 1023.59 1023.97 1024.31 1024.61 1024.88 1025.12 1025.34 1025.53 1025.72 1025.88
1007.82 1007.86 1007.96 1008.12 1008.35 1008.65 1009.00 1009.41 1009.86 1010.33 1010.82 1011.31 1011.79 1012.26 1012.73 1013.19 1013.67 1014.16 1014.67 1015.22 1015.80 1016.40 1017.03 1017.67 1018.31 1018.94 1019.56 1020.16 1020.73 1021.27 1021.78 1022.26 1022.70 1023.11 1023.48 1023.82 1024.13 1024.41 1024.67 1024.93 1025.16 1025.39 1025.59
1007.26 1007.34 1007.47 1007.65 1007.89 1008.19 1008.54 1008.94 1009.38 1009.85 1010.34 1010.83 1011.32 1011.80 1012.27 1012.73 1013.19 1013.67 1014.16 1014.68 1015.24 1015.83 1016.44 1017.08 1017.72 1018.36 1018.99 1019.59 1020.16 1020.70 1021.20 1021.67 1022.09 1022.48 1022.84 1023.17 1023.48 1023.77 1024.05 1024.33 1024.60 1024.86 1025.11
1006.69 1006.82 1006.98 1007.19 1007.45 1007.75 1008.09 1008.48 1008.91 1009.37 1009.85 1010.35 1010.84 1011.32 1011.79 1012.26 1012.71 1013.18 1013.66 1014.17 1014.71 1015.29 1015.89 1016.52 1017.15 1017.79 1018.41 1019.00 1019.56 1020.09 1020.57 1021.01 1021.41 1021.78 1022.12 1022.44 1022.74 1023.03 1023.32 1023.61 1023.91 1024.20 1024.47
1006.16 1006.32 1006.52 1006.75 1007.02 1007.32 1007.66 1008.04 1008.46 1008.91 1009.39 1009.88 1010.37 1010.86 1011.34 1011.81 1012.28 1012.75 1013.23 1013.74 1014.27 1014.84 1015.43 1016.05 1016.67 1017.29 1017.90 1018.47 1019.01 1019.51 1019.97 1020.39 1020.76 1021.11 1021.42 1021.72 1022.01 1022.29 1022.57 1022.86 1023.16 1023.45 1023.74
1005.70 1005.88 1006.11 1006.36 1006.64 1006.95 1007.29 1007.66 1008.07 1008.51 1008.99 1009.47 1009.97 1010.46 1010.95 1011.44 1011.92 1012.40 1012.90 1013.42 1013.96 1014.52 1015.11 1015.72 1016.33 1016.93 1017.51 1018.06 1018.58 1019.05 1019.48 1019.86 1020.21 1020.53 1020.82 1021.09 1021.36 1021.62 1021.88 1022.16 1022.43 1022.71 1022.99
1005.35 1005.54 1005.78 1006.05 1006.33 1006.65 1006.99 1007.37 1007.77 1008.21 1008.68 1009.17 1009.66 1010.16 1010.67 1011.16 1011.66 1012.16 1012.68 1013.21 1013.76 1014.33 1014.92 1015.52 1016.12 1016.70 1017.26 1017.79 1018.27 1018.71 1019.11 1019.47 1019.79 1020.08 1020.35 1020.60 1020.84 1021.07 1021.31 1021.54 1021.78 1022.03 1022.27
Thickness
5725 5724 5722 5720 5721 5721 5720 5719 5720 5720 5719 5720 5721 5723 5723 5724 5724 5725 5723 5719 5716 5714 5713 5713 5713 5713 5712 5712 5711 5711 5710 5710 5709 5708 5707 5706 5706 5706 5705 5705 5705 5704 5704
5723 5721 5719 5717 5718 5718 5718 5716 5716 5716 5717 5717 5718 5718 5719 5720 5720 5720 5720 5718 5714 5712 5711 5711 5710 5710 5710 5710 5709 5709 5709 5708 5707 5706 5705 5704 5704 5703 5703 5703 5703 5702 5702
5719 5717 5717 5715 5715 5713 5713 5712 5712 5713 5714 5715 5715 5715 5716 5716 5716 5716 5716 5716 5715 5712 5710 5708 5708 5708 5707 5707 5707 5707 5707 5706 5705 5704 5703 5702 5702 5701 5701 5701 5701 5700 5700
5714 5713 5714 5714 5711 5711 5710 5709 5709 5710 5712 5712 5712 5713 5713 5712 5712 5712 5713 5713 5713 5713 5710 5707 5705 5705 5704 5704 5704 5704 5704 5703 5702 5701 5701 5700 5699 5699 5698 5698 5698 5698 5698
5711 5710 5711 5710 5708 5708 5707 5707 5707 5706 5706 5707 5708 5708 5710 5710 5709 5710 5710 5709 5708 5708 5708 5705 5703 5702 5701 5701 5701 5701 5701 5700 5699 5699 5698 5697 5697 5696 5695 5695 5695 5695 5695
5707 5707 5707 5705 5705 5704 5703 5702 5700 5700 5701 5702 5704 5705 5705 5707 5707 5707 5707 5707 5705 5705 5704 5704 5702 5701 5699 5698 5698 5698 5698 5697 5696 5696 5695 5694 5693 5693 5692 5692 5692 5692 5692
5704 5702 5703 5700 5700 5700 5698 5698 5697 5696 5697 5697 5696 5696 5700 5702 5703 5702 5703 5703 5703 5702 5701 5700 5700 5699 5699 5696 5695 5694 5694 5694 5693 5692 5692 5691 5690 5690 5689 5689 5689 5689 5689
5699 5699 5697 5696 5696 5695 5693 5692 5690 5692 5693 5693 5690 5688 5689 5693 5695 5701 5700 5698 5699 5699 5699 5698 5696 5695 5695 5695 5693 5691 5690 5690 5689 5689 5688 5688 5687 5687 5686 5686 5686 5686 5686
5694 5693 5692 5691 5690 5691 5690 5687 5687 5685 5686 5688 5687 5684 5683 5685 5690 5695 5695 5695 5694 5694 5694 5694 5693 5692 5690 5690 5690 5688 5687 5686 5685 5685 5685 5685 5684 5684 5683 5682 5682 5682 5682
5690 5688 5687 5686 5685 5686 5685 5684 5684 5683 5681 5682 5683 5682 5681 5683 5680 5683 5687 5689 5689 5688 5689 5689 5689 5688 5686 5685 5685 5684 5683 5682 5682 5681 5681 5681 5680 5680 5679 5679 5678 5678 5679
5686 5684 5683 5682 5681 5681 5681 5679 5679 5678 5678 5677 5678 5678 5677 5677 5677 5677 5677 5681 5682 5684 5684 5683 5683 5683 5682 5682 5681 5680 5679 5678 5677 5677 5677 5676 5676 5676 5676 5675 5674 5674 5674
5683 5681 5679 5678 5677 5676 5675 5674 5673 5673 5672 5672 5672 5673 5673 5673 5673 5674 5673 5673 5675 5678 5679 5678 5678 5679 5678 5678 5677 5676 5674 5674 5673 5673 5673 5673 5673 5673 5672 5671 5670 5670 5670
5679 5677 5676 5673 5673 5671 5670 5669 5668 5668 5667 5666 5665 5667 5669 5669 5670 5670 5668 5669 5669 5672 5672 5673 5675 5675 5674 5673 5672 5670 5670 5669 5669 5669 5669 5669 5669 5668 5668 5667 5666 5666 5666
5676 5674 5671 5670 5668 5667 5666 5664 5664 5663 5662 5661 5661 5661 5662 5664 5664 5664 5664 5663 5662 5665 5666 5667 5669 5670 5669 5668 5667 5665 5665 5665 5665 5665 5665 5664 5664 5664 5664 5663 5662 5662 5662
5671 5670 5668 5665 5664 5663 5662 5659 5660 5658 5658 5657 5657 5656 5656 5659 5658 5659 5660 5660 5657 5656 5659 5661 5662 5664 5663 5662 5661 5660 5661 5661 5660 5660 5660 5660 5660 5659 5659 5659 5658 5657 5657
5667 5665 5664 5662 5661 5659 5657 5656 5655 5654 5653 5652 5651 5651 5650 5652 5653 5653 5653 5654 5654 5653 5653 5658 5658 5660 5657 5657 5655 5655 5655 5655 5655 5655 5655 5656 5656 5656 5655 5655 5654 5653 5653
5663 5661 5659 5658 5656 5655 5654 5652 5651 5650 5648 5647 5646 5646 5645 5645 5646 5647 5648 5648 5648 5648 5647 5652 5653 5654 5651 5650 5649 5650 5650 5651 5652 5652 5652 5652 5652 5652 5652 5651 5650 5649 5649
5660 5658 5655 5654 5652 5651 5649 5648 5646 5645 5644 5642 5642 5641 5641 5641 5640 5640 5641 5641 5642 5642 5641 5642 5645 5645 5644 5644 5643 5643 5646 5647 5648 5648 5648 5648 5648 5648 5648 5647 5647 5646 5644
5656 5654 5652 5649 5648 5647 5646 5644 5643 5641 5640 5639 5638 5636 5636 5636 5635 5635 5634 5635 5635 5637 5636 5636 5638 5639 5638 5639 5637 5638 5640 5641 5643 5644 5644 5644 5644 5644 5644 5644 5643 5642 5641
5652 5650 5649 5647 5645 5643 5642 5641 5639 5637 5636 5635 5634 5633 5632 5631 5630 5630 5629 5628 5628 5628 5629 5629 5631 5632 5632 5633 5631 5632 5634 5636 5638 5641 5641 5642 5641 5640 5640 5640 5640 5639 5637
5649 5647 5644 5642 5641 5640 5639 5637 5635 5634 5632 5631 5630 5629 5628 5627 5625 5623 5624 5623 5622 5621 5622 5624 5624 5625 5626 5625 5625 5627 5628 5630 5633 5636 5637 5639 5639 5639 5639 5638 5637 5635 5634
5644 5642 5640 5638 5637 5636 5632 5628 5627 5628 5627 5626 5625 5624 5624 5622 5621 5618 5616 5615 5614 5615 5617 5617 5618 5619 5619 5620 5619 5620 5621 5623 5625 5631 5631 5634 5636 5638 5638 5638 5637 5633 5631
5639 5637 5635 5634 5632 5629 5625 5622 5620 5620 5621 5621 5620 5619 5620 5620 5616 5616 5613 5610 5609 5609 5609 5610 5613 5614 5614 5615 5613 5613 5614 5616 5619 5624 5624 5626 5630 5632 5635 5636 5633 5630 5628
5634 5632 5631 5629 5627 5624 5619 5616 5614 5614 5616 5616 5615 5614 5613 5613 5612 5609 5608 5608 5608 5608 5606 5606 5608 5610 5609 5608 5607 5608 5609 5610 5614 5618 5619 5620 5624 5626 5630 5629 5627 5625 5624
5630 5629 5628 5625 5623 5620 5614 5611 5608 5611 5612 5612 5611 5611 5610 5608 5605 5601 5602 5603 5603 5604 5603 5602 5601 5602 5601 5600 5601 5602 5604 5605 5609 5613 5615 5616 5619 5621 5622 5623 5622 5620 5619
5626 5625 5624 5622 5618 5616 5610 5606 5603 5607 5608 5608 5608 5608 5605 5603 5599 5596 5597 5598 5598 5599 5599 5599 5597 5596 5597 5597 5596 5597 5600 5602 5605 5608 5611 5611 5613 5614 5614 5617 5617 5616 5613